Date String (YYYY-MM-DD hh:mm:ss) UTC,Instrument flags,Ambient pressure (hPa),Sample flow (lpm),Bypass flow (lpm),Sample temperature (°C),Ambient temperature (°C),ASC tube jacket temperature (°C),LED temperature (°C),Box temperature (°C),Sample RH (%),Span deviation,Mass concentration (μg/m³),Mass concentration (μg/m³),Mass concentration (μg/m³)
DateTimeUTC,F1_M11,P_M11,Q1_M11,Q2_M11,T1_M11,T2_M11,T3_M11,T4_M11,T5_M11,U1_M11,ZSPAN_M11,X0_M11,X2_M11,X1_M11
2023-01-01 10:00:00,,0818.0,5.05,0.00,21.1,19.3,00.0,30.1,22.6,15.7,0000.0,0004.44,0003.15,0002.88
2023-01-01 10:01:00,,0818.0,4.99,0.00,21.0,19.2,00.0,30.1,22.5,15.6,0000.0,0004.28,0003.09,0002.82
2023-01-01 10:02:00,,0818.0,4.96,0.00,21.0,19.2,00.0,30.0,22.4,15.4,0000.0,0004.09,0002.97,0002.73
2023-01-01 10:03:00,,0818.0,5.03,0.00,21.0,19.1,00.0,30.0,22.4,15.5,0000.0,0004.01,0002.90,0002.65
2023-01-01 10:04:00,,0818.0,5.04,0.00,20.9,19.0,00.0,30.0,22.3,15.6,0000.0,0003.97,0002.85,0002.60
2023-01-01 10:05:00,,0818.0,4.97,0.00,20.9,19.8,00.0,29.9,22.5,15.6,0000.0,0004.01,0002.85,0002.58
2023-01-01 10:06:00,,0818.0,4.99,0.00,21.1,21.2,00.0,29.9,22.9,15.6,0000.0,0004.06,0002.79,0002.53
2023-01-01 10:07:00,,0818.0,5.03,0.00,21.2,22.3,00.0,29.9,23.3,15.6,0000.0,0003.99,0002.73,0002.47
2023-01-01 10:08:00,,0818.0,4.99,0.00,21.3,22.0,00.0,30.0,23.3,15.4,0000.0,0003.54,0002.66,0002.42
2023-01-01 10:09:00,,0818.0,4.97,0.00,21.4,21.5,00.0,30.1,23.2,15.4,0000.0,0003.36,0002.61,0002.38
2023-01-01 10:10:00,,0818.0,5.02,0.00,21.4,21.1,00.0,30.1,23.2,15.5,0000.0,0003.24,0002.56,0002.34
2023-01-01 10:11:00,,0818.0,4.99,0.00,21.4,20.7,00.0,30.1,23.1,15.6,0000.0,0003.18,0002.52,0002.32
2023-01-01 10:12:00,,0818.0,5.01,0.00,21.4,20.5,00.0,30.2,23.1,15.6,0000.0,0003.18,0002.52,0002.32
2023-01-01 10:13:00,,0817.9,4.99,0.00,21.4,20.3,00.0,30.2,23.0,15.3,0000.0,0003.26,0002.56,0002.34
2023-01-01 10:14:00,,0817.9,4.97,0.00,21.4,20.1,00.0,30.2,22.9,15.3,0000.0,0003.38,0002.59,0002.36
2023-01-01 10:15:00,,0817.8,5.04,0.00,21.3,20.0,00.0,30.2,22.9,15.8,0000.0,0003.73,0002.65,0002.40
2023-01-01 10:16:00,,0817.8,5.00,0.00,21.3,19.9,00.0,30.2,23.0,16.1,0000.0,0003.86,0002.69,0002.44
2023-01-01 10:17:00,,0817.8,4.99,0.00,21.3,19.9,00.0,30.2,23.0,16.1,0000.0,0003.76,0002.74,0002.49
2023-01-01 10:18:00,,0817.8,4.99,0.00,21.3,19.9,00.0,30.2,23.0,16.1,0000.0,0003.86,0002.78,0002.53
2023-01-01 10:19:00,,0817.8,4.98,0.00,21.3,20.0,00.0,30.2,23.0,16.1,0000.0,0003.97,0002.85,0002.58
2023-01-01 10:20:00,,0817.8,4.97,0.00,21.3,20.0,00.0,30.2,23.0,16.1,0000.0,0004.08,0002.92,0002.65
2023-01-01 10:21:00,,0817.9,5.02,0.00,21.3,20.1,00.0,30.2,23.1,16.1,0000.0,0004.17,0002.97,0002.68
2023-01-01 10:22:00,,0817.8,5.04,0.00,21.4,20.1,00.0,30.2,23.1,16.0,0000.0,0004.35,0003.06,0002.71
2023-01-01 10:23:00,,0817.8,4.96,0.00,21.4,20.1,00.0,30.2,23.1,16.0,0000.0,0004.68,0003.15,0002.73
2023-01-01 10:24:00,,0817.8,4.99,0.00,21.4,20.1,00.0,30.2,23.1,15.7,0000.0,0004.77,0003.17,0002.75
2023-01-01 10:25:00,,0817.8,5.03,0.00,21.4,20.1,00.0,30.2,23.0,15.2,0000.0,0004.72,0003.15,0002.73
2023-01-01 10:26:00,,0817.8,4.98,0.00,21.4,20.1,00.0,30.2,23.0,15.8,0000.0,0004.56,0003.14,0002.69
2023-01-01 10:27:00,,0817.8,4.98,0.00,21.4,20.1,00.0,30.2,23.1,15.8,0000.0,0005.28,0003.17,0002.66
2023-01-01 10:28:00,,0817.8,4.99,0.00,21.4,20.1,00.0,30.2,23.1,15.8,0000.0,0005.33,0003.17,0002.62
2023-01-01 10:29:00,,0817.7,4.98,0.00,21.4,20.2,00.0,30.2,23.1,15.7,0000.0,0005.25,0003.14,0002.58
2023-01-01 10:30:00,,0817.7,4.99,0.00,21.4,20.3,00.0,30.2,23.1,15.4,0000.0,0005.32,0003.12,0002.52
2023-01-01 10:31:00,,0817.8,5.02,0.00,21.4,20.3,00.0,30.2,23.1,15.3,0000.0,0005.43,0003.08,0002.43
2023-01-01 10:32:00,,0817.8,5.01,0.00,21.4,20.3,00.0,30.2,23.2,15.2,0000.0,0005.38,0003.01,0002.37
2023-01-01 10:33:00,,0817.8,4.99,0.00,21.5,20.4,00.0,30.3,23.2,15.2,0000.0,0005.27,0002.91,0002.29
2023-01-01 10:34:00,,0817.8,4.97,0.00,21.5,20.5,00.0,30.3,23.2,15.1,0000.0,0005.29,0002.83,0002.23
2023-01-01 10:35:00,,0817.8,5.03,0.00,21.5,20.6,00.0,30.3,23.3,15.0,0000.0,0005.15,0002.72,0002.14
2023-01-01 10:36:00,,0817.8,5.03,0.00,21.6,21.6,00.0,30.2,23.5,15.0,0000.0,0005.21,0002.72,0002.11
2023-01-01 10:37:00,,0817.9,4.99,0.00,21.7,22.4,00.0,30.3,23.8,15.0,0000.0,0005.12,0002.68,0002.09
2023-01-01 10:38:00,,0817.9,4.96,0.00,21.8,22.3,00.0,30.4,23.8,14.9,0000.0,0004.42,0002.63,0002.06
2023-01-01 10:39:00,,0817.8,5.01,0.00,21.9,21.9,00.0,30.4,23.8,14.7,0000.0,0004.20,0002.55,0002.00
2023-01-01 10:40:00,,0817.8,5.03,0.00,21.9,21.7,00.0,30.5,23.8,14.5,0000.0,0004.14,0002.54,0001.96
2023-01-01 10:41:00,,0817.8,5.01,0.00,21.9,21.5,00.0,30.5,23.8,14.6,0000.0,0004.11,0002.54,0001.91
2023-01-01 10:42:00,,0817.8,4.97,0.00,21.9,21.3,00.0,30.5,23.8,14.5,0000.0,0003.96,0002.51,0001.88
2023-01-01 10:43:00,,0817.9,4.97,0.00,21.9,21.2,00.0,30.6,23.8,14.5,0000.0,0004.00,0002.50,0001.84
2023-01-01 10:44:00,,0817.9,4.95,0.00,21.9,21.1,00.0,30.6,23.8,14.5,0000.0,0004.20,0002.52,0001.84
2023-01-01 10:45:00,,0817.9,5.04,0.00,21.9,21.0,00.0,30.6,23.8,14.4,0000.0,0004.06,0002.48,0001.82
2023-01-01 10:46:00,,0817.9,5.01,0.00,21.9,21.0,00.0,30.6,23.7,14.4,0000.0,0004.10,0002.50,0001.81
2023-01-01 10:47:00,,0817.9,4.99,0.00,22.0,21.0,00.0,30.6,23.7,14.4,0000.0,0004.13,0002.51,0001.80
2023-01-01 10:48:00,,0817.8,4.97,0.00,22.0,21.0,00.0,30.7,23.7,14.4,0000.0,0004.19,0002.53,0001.79
2023-01-01 10:49:00,,0817.8,5.04,0.00,22.0,20.9,00.0,30.7,23.7,14.4,0000.0,0004.23,0002.51,0001.77
2023-01-01 10:50:00,,0817.8,5.00,0.00,22.0,20.9,00.0,30.7,23.7,14.3,0000.0,0004.11,0002.46,0001.76
2023-01-01 10:51:00,,0817.8,5.01,0.00,22.0,20.9,00.0,30.7,23.7,14.3,0000.0,0004.06,0002.43,0001.74
2023-01-01 10:52:00,,0817.8,4.99,0.00,22.0,20.9,00.0,30.7,23.7,14.3,0000.0,0004.09,0002.41,0001.74
2023-01-01 10:53:00,,0817.8,4.99,0.00,22.0,20.9,00.0,30.7,23.8,14.3,0000.0,0004.11,0002.40,0001.74
2023-01-01 10:54:00,,0817.8,4.98,0.00,22.0,20.9,00.0,30.7,23.8,14.3,0000.0,0004.05,0002.39,0001.75
2023-01-01 10:55:00,,0817.7,5.00,0.00,22.0,20.9,00.0,30.7,23.7,14.3,0000.0,0003.81,0002.34,0001.73
2023-01-01 10:56:00,,0817.8,4.98,0.00,22.0,20.9,00.0,30.8,23.7,14.3,0000.0,0003.82,0002.36,0001.72
2023-01-01 10:57:00,,0817.7,4.99,0.00,22.0,20.8,00.0,30.8,23.7,14.3,0000.0,0003.69,0002.33,0001.71
2023-01-01 10:58:00,,0817.8,5.03,0.00,22.0,20.9,00.0,30.8,23.7,14.3,0000.0,0003.69,0002.31,0001.70
2023-01-01 10:59:00,,0817.7,5.06,0.00,22.0,20.8,00.0,30.8,23.7,14.4,0000.0,0003.68,0002.29,0001.69
